Hourly Weather Soledar

Today, 30 September, Wednesday

Time Temperature Precipitation Wind Pressure Humidity
00:00 +17°C° 0 mm 8 mps 751 mmHg 34%
01:00 +17°C° 0 mm 8 mps 751 mmHg 36%
02:00 +16°C° 0 mm 8 mps 751 mmHg 39%
03:00 +15°C° 0 mm 9 mps 751 mmHg 41%
04:00 +15°C° 0 mm 9 mps 751 mmHg 44%
05:00 +13°C° 0 mm 9 mps 750 mmHg 47%
06:00 +12°C° 0 mm 9 mps 750 mmHg 50%
07:00 +13°C° 0 mm 9 mps 750 mmHg 48%
08:00 +14°C° 0 mm 10 mps 750 mmHg 46%
09:00 +15°C° 0 mm 12 mps 750 mmHg 46%
10:00 +17°C° 0 mm 11 mps 750 mmHg 41%
11:00 +19°C° 0 mm 11 mps 750 mmHg 36%
12:00 +21°C° 0 mm 11 mps 749 mmHg 32%
13:00 +22°C° 0 mm 11 mps 749 mmHg 29%
14:00 +23°C° 0 mm 11 mps 749 mmHg 26%
15:00 +24°C° 0 mm 11 mps 749 mmHg 23%
16:00 +23°C° 0 mm 10 mps 749 mmHg 25%
17:00 +23°C° 0 mm 9 mps 749 mmHg 26%
18:00 +22°C° 0 mm 8 mps 749 mmHg 27%
19:00 +22°C° 0 mm 9 mps 749 mmHg 27%
20:00 +21°C° 0 mm 10 mps 749 mmHg 28%
21:00 +21°C° 0 mm 11 mps 750 mmHg 28%
22:00 +19°C° 0.1 mm 10 mps 750 mmHg 30%
23:00 +18°C° 0.1 mm 10 mps 750 mmHg 31%

Tomorrow, 1 October, Thursday

Time Temperature Precipitation Wind Pressure Humidity
00:00 +17°C° 0.1 mm 9 mps 750 mmHg 32%
01:00 +17°C° 0 mm 9 mps 750 mmHg 34%
02:00 +16°C° 0 mm 9 mps 751 mmHg 37%
03:00 +15°C° 0 mm 9 mps 751 mmHg 39%
04:00 +15°C° 0.1 mm 8 mps 751 mmHg 42%
05:00 +13°C° 0.1 mm 8 mps 751 mmHg 45%
06:00 +14°C° 0.1 mm 7 mps 751 mmHg 49%
07:00 +13°C° 0 mm 8 mps 751 mmHg 48%
08:00 +15°C° 0 mm 8 mps 751 mmHg 47%
09:00 +15°C° 0 mm 8 mps 752 mmHg 46%
10:00 +17°C° 0 mm 9 mps 752 mmHg 42%
11:00 +18°C° 0 mm 9 mps 752 mmHg 38%
12:00 +21°C° 0 mm 9 mps 752 mmHg 33%
13:00 +22°C° 0 mm 8 mps 751 mmHg 31%
14:00 +22°C° 0 mm 8 mps 751 mmHg 28%
15:00 +23°C° 0 mm 7 mps 751 mmHg 26%
16:00 +22°C° 0 mm 6 mps 751 mmHg 28%
17:00 +21°C° 0 mm 5 mps 751 mmHg 30%
18:00 +21°C° 0 mm 4 mps 751 mmHg 32%
19:00 +20°C° 0 mm 5 mps 751 mmHg 35%
20:00 +19°C° 0 mm 5 mps 751 mmHg 39%
21:00 +17°C° 0 mm 5 mps 752 mmHg 43%
22:00 +17°C° 0 mm 6 mps 752 mmHg 40%
23:00 +18°C° 0 mm 7 mps 752 mmHg 37%

Day after tomorrow, 2 October, Friday

Time Temperature Precipitation Wind Pressure Humidity
00:00 +18°C° 0 mm 8 mps 752 mmHg 35%
01:00 +17°C° 0 mm 8 mps 752 mmHg 37%
02:00 +17°C° 0 mm 8 mps 752 mmHg 40%
03:00 +16°C° 0 mm 8 mps 752 mmHg 42%
04:00 +16°C° 0.1 mm 7 mps 752 mmHg 45%
05:00 +15°C° 0.1 mm 7 mps 752 mmHg 48%
06:00 +15°C° 0.1 mm 6 mps 752 mmHg 51%
07:00 +15°C° 0 mm 6 mps 753 mmHg 50%
08:00 +15°C° 0 mm 6 mps 753 mmHg 50%
09:00 +16°C° 0 mm 6 mps 753 mmHg 49%
10:00 +17°C° 0 mm 6 mps 753 mmHg 46%
11:00 +20°C° 0 mm 6 mps 753 mmHg 43%
12:00 +21°C° 0 mm 6 mps 753 mmHg 40%
13:00 +22°C° 0 mm 6 mps 753 mmHg 39%
14:00 +22°C° 0 mm 5 mps 753 mmHg 38%
15:00 +23°C° 0 mm 5 mps 754 mmHg 36%
16:00 +22°C° 0 mm 5 mps 754 mmHg 38%
17:00 +22°C° 0 mm 4 mps 754 mmHg 39%
18:00 +21°C° 0 mm 4 mps 754 mmHg 40%
19:00 +20°C° 0 mm 4 mps 754 mmHg 43%
20:00 +18°C° 0 mm 3 mps 754 mmHg 45%
21:00 +17°C° 0 mm 3 mps 755 mmHg 48%
22:00 +17°C° 0 mm 3 mps 755 mmHg 50%
23:00 +16°C° 0 mm 3 mps 755 mmHg 53%

3 October, Saturday

Time Temperature Precipitation Wind Pressure Humidity
00:00 +14°C° 0 mm 3 mps 755 mmHg 55%
01:00 +14°C° 0 mm 3 mps 755 mmHg 55%
02:00 +14°C° 0 mm 4 mps 755 mmHg 55%
03:00 +14°C° 0 mm 4 mps 756 mmHg 55%
04:00 +13°C° 0 mm 4 mps 756 mmHg 62%
05:00 +13°C° 0 mm 4 mps 756 mmHg 69%
06:00 +12°C° 0 mm 4 mps 756 mmHg 76%
07:00 +14°C° 0 mm 4 mps 756 mmHg 69%
08:00 +15°C° 0 mm 5 mps 757 mmHg 61%
09:00 +16°C° 0 mm 5 mps 757 mmHg 54%
10:00 +19°C° 0 mm 5 mps 757 mmHg 50%
11:00 +20°C° 0 mm 5 mps 757 mmHg 46%
12:00 +22°C° 0 mm 5 mps 757 mmHg 43%
13:00 +22°C° 0 mm 5 mps 757 mmHg 41%
14:00 +22°C° 0 mm 4 mps 757 mmHg 39%
15:00 +22°C° 0 mm 4 mps 756 mmHg 38%
16:00 +21°C° 0 mm 4 mps 756 mmHg 39%
17:00 +20°C° 0 mm 3 mps 756 mmHg 40%
18:00 +19°C° 0 mm 3 mps 756 mmHg 41%
19:00 +18°C° 0 mm 3 mps 756 mmHg 41%
20:00 +17°C° 0 mm 3 mps 757 mmHg 40%
21:00 +15°C° 0 mm 4 mps 757 mmHg 40%
22:00 +16°C° 0 mm 3 mps 757 mmHg 42%
23:00 +16°C° 0 mm 3 mps 757 mmHg 44%

4 October, Sunday

Time Temperature Precipitation Wind Pressure Humidity
00:00 +14°C° 0 mm 3 mps 757 mmHg 46%
01:00 +14°C° 0 mm 3 mps 757 mmHg 49%
02:00 +13°C° 0 mm 3 mps 757 mmHg 51%
03:00 +14°C° 0 mm 2 mps 757 mmHg 54%
04:00 +14°C° 0 mm 2 mps 757 mmHg 55%
05:00 +14°C° 0 mm 2 mps 757 mmHg 56%
06:00 +13°C° 0 mm 2 mps 757 mmHg 57%
07:00 +15°C° 0 mm 2 mps 757 mmHg 54%
08:00 +16°C° 0 mm 3 mps 757 mmHg 51%
09:00 +17°C° 0 mm 3 mps 757 mmHg 48%
10:00 +19°C° 0 mm 3 mps 757 mmHg 45%
11:00 +21°C° 0 mm 3 mps 757 mmHg 42%
12:00 +24°C° 0 mm 3 mps 757 mmHg 39%
13:00 +25°C° 0 mm 3 mps 757 mmHg 37%
14:00 +25°C° 0 mm 3 mps 756 mmHg 36%
15:00 +26°C° 0 mm 2 mps 756 mmHg 34%
16:00 +25°C° 0 mm 2 mps 756 mmHg 37%
17:00 +23°C° 0 mm 2 mps 756 mmHg 40%
18:00 +21°C° 0 mm 2 mps 756 mmHg 43%
19:00 +20°C° 0 mm 2 mps 756 mmHg 47%
20:00 +19°C° 0 mm 2 mps 756 mmHg 50%
21:00 +18°C° 0 mm 2 mps 757 mmHg 53%
22:00 +18°C° 0 mm 3 mps 757 mmHg 51%
23:00 +18°C° 0 mm 3 mps 756 mmHg 49%

5 October, Monday

Time Temperature Precipitation Wind Pressure Humidity
00:00 +17°C° 0 mm 3 mps 756 mmHg 47%
01:00 +17°C° 0 mm 3 mps 756 mmHg 46%
02:00 +17°C° 0 mm 2 mps 756 mmHg 45%
03:00 +17°C° 0 mm 2 mps 756 mmHg 44%
04:00 +16°C° 0 mm 2 mps 757 mmHg 45%
05:00 +15°C° 0 mm 2 mps 757 mmHg 47%
06:00 +15°C° 0 mm 2 mps 757 mmHg 49%
07:00 +16°C° 0 mm 3 mps 757 mmHg 44%
08:00 +17°C° 0 mm 3 mps 757 mmHg 39%
09:00 +18°C° 0 mm 4 mps 757 mmHg 34%
10:00 +20°C° 0 mm 4 mps 757 mmHg 32%
11:00 +22°C° 0 mm 4 mps 757 mmHg 30%
12:00 +23°C° 0 mm 4 mps 757 mmHg 28%
13:00 +25°C° 0 mm 4 mps 757 mmHg 29%
14:00 +25°C° 0 mm 4 mps 757 mmHg 30%
15:00 +25°C° 0 mm 4 mps 757 mmHg 31%
16:00 +23°C° 0 mm 4 mps 756 mmHg 34%
17:00 +21°C° 0 mm 4 mps 756 mmHg 36%
18:00 +20°C° 0 mm 3 mps 756 mmHg 39%
19:00 +19°C° 0 mm 3 mps 756 mmHg 39%
20:00 +18°C° 0 mm 4 mps 756 mmHg 40%
21:00 +18°C° 0 mm 4 mps 756 mmHg 40%
22:00 +18°C° 0 mm 4 mps 756 mmHg 38%
23:00 +18°C° 0 mm 4 mps 756 mmHg 36%
Show more